www.pogodaiklimat.ru
ПОГОДА в Сан-Мигель-де-Тукумане

Архив погоды в Сан-Мигель-де-Тукумане (Аргентина)

Время
(UTC), дата
07 27.11
08 27.11
09 27.11
10 27.11
11 27.11
12 27.11
13 27.11
14 27.11
15 27.11
16 27.11
17 27.11
18 27.11
19 27.11
20 27.11
21 27.11
22 27.11
23 27.11
00 28.11
01 28.11
02 28.11
03 28.11
04 28.11
05 28.11
06 28.11
07 28.11
08 28.11
09 28.11
10 28.11
11 28.11
12 28.11
13 28.11
15 28.11
16 28.11
17 28.11
18 28.11
19 28.11
20 28.11
21 28.11
22 28.11
23 28.11
00 29.11
01 29.11
02 29.11
03 29.11
04 29.11
05 29.11
06 29.11
07 29.11
08 29.11
09 29.11
10 29.11
11 29.11
12 29.11
13 29.11
14 29.11
15 29.11
16 29.11
17 29.11
18 29.11
19 29.11
20 29.11
21 29.11
22 29.11
23 29.11
00 30.11
01 30.11
02 30.11
03 30.11
04 30.11
05 30.11
06 30.11
07 30.11
08 30.11
09 30.11
10 30.11
11 30.11
12 30.11
13 30.11
14 30.11
15 30.11
16 30.11
17 30.11
18 30.11
19 30.11
20 30.11
21 30.11
22 30.11
23 30.11
00 1.12
01 1.12
02 1.12
03 1.12
04 1.12
05 1.12
06 1.12
07 1.12
08 1.12
09 1.12
10 1.12
11 1.12
12 1.12
13 1.12
14 1.12
15 1.12
16 1.12
17 1.12
18 1.12
19 1.12
20 1.12
21 1.12
22 1.12
23 1.12
00 2.12
01 2.12
02 2.12
03 2.12
04 2.12
05 2.12
06 2.12
07 2.12
08 2.12
09 2.12
10 2.12
11 2.12
12 2.12
13 2.12
14 2.12
15 2.12
16 2.12
17 2.12
18 2.12
19 2.12
20 2.12
21 2.12
22 2.12
23 2.12
00 3.12
01 3.12
02 3.12
03 3.12
04 3.12
05 3.12
06 3.12
07 3.12
08 3.12
09 3.12
10 3.12
11 3.12
12 3.12
13 3.12
14 3.12
15 3.12
16 3.12
17 3.12
18 3.12
19 3.12
20 3.12
21 3.12
22 3.12
23 3.12
00 4.12
01 4.12
02 4.12
03 4.12
04 4.12
Ветер
(напр.,м/с)
Видим. Явления Облачность Т
(С)
Тd
(С)
f
(%)
Тe
(С)
Тes
(С)
Комфортность P
(гПа)
Po
(гПа)
Тmin
(С)
Tmax
(С)
R
(мм)
R24
(мм)
S
(см)
С 3 10 км ясно +19.7 +11.0 57 +21 +21 комфорт 1011.1 961.6
С 4 10 км ясно +19.9 +10.9 56 +21 +21 комфорт 1011.2 961.7
С 4 12 км ясно +19.9 +10.4 54 +21 +21 комфорт 1012.3 962.6
СВ 2 15 км ясно +20.1 +11.1 56 +22 +23 комфорт 1013.0 963.3
С 4 15 км ясно +22.9 +11.7 49 +25 +27 комфорт 1013.7 963.8
З 2 15 км ясно +26.5 +13.3 44 +28 +34 жарко 1013.8 964.0 +18.8 +29.5
ЮЗ 2 15 км ясно +29.7 +12.1 34 +31 +42 жарко 1013.3 963.7
Ю 3 15 км ясно +30.5 +16.4 43 +34 +48 очень
душно
1012.8 963.3
ЮВ 3 15 км ясно +31.9 +13.1 32 +33 +51 опасность
солнечного
удара
1012.3 962.6
ЮВ 5 15 км ясно +32.9 +13.0 30 +34 +46 очень
жарко
1011.7 962.0
В 2 15 км 5/0
[Ci]
+34.2 +13.0 28 +35 +56 опасность
солнечного
удара
1010.7 961.0
ЮВ 2 15 км 3/0
[Ci]
+35.1 +9.7 21 +34 +51 опасность
солнечного
удара
1009.3 959.8
Ю 4 15 км ясно +36.1 +11.5 23 +36 +45 очень
жарко
1007.8 958.4
ЮВ 3 15 км 1/0
[Cs]
+36.3 +11.0 22 +36 +44 очень
жарко
1007.3 957.8
Ю 3 15 км 3/0
[Cs]
+36.1 +12.0 23 +36 +39 очень
жарко
1007.1 957.7
Ю 4 9000 м дым 5/0
[Cs]
+33.7 +14.0 31 +35 +36 очень
жарко
1007.4 957.8
штиль 0 10 км 6/0
[Ac cast Cs]
+30.9 +15.3 39 +33 +33 душно 1007.8 958.2
Ю 2 10 км 6/0
[Cs]
+28.7 +16.0 46 +32 +32 душно 1008.2 958.6 +26.5 +37.5
штиль 0 10 км 6/0
[Ac trans Cs]
+28.1 +16.0 48 +31 +31 душно 1008.7 959.4
С 3 10 км 9/0
[Cs]
+24.7 +16.9 62 +28 +28 душно 1009.6 960.0
С 3 10 км 9/0
[Cs]
+23.9 +15.0 57 +27 +27 жарко 1009.6 960.1
С 3 10 км 9/0
[Cs]
+23.1 +13.4 54 +26 +26 жарко 1009.1 959.6
С 3 12 км 9/0
[Cs]
+22.5 +12.9 55 +25 +25 комфорт 1008.2 958.8
С 3 12 км 9/0
[Cs]
+22.3 +12.8 55 +25 +25 комфорт 1007.6 958.2
С 3 12 км 6/0
[Cs]
+21.9 +13.3 58 +25 +25 комфорт 1007.3 958.1
С 3 12 км 6/0
[Cs]
+22.1 +13.2 57 +25 +25 комфорт 1007.2 958.0
С 4 12 км 3/0
[Cs]
+21.5 +12.0 55 +24 +24 комфорт 1007.2 957.8
С 4 12 км 3/0
[Cs]
+22.0 +11.6 52 +24 +24 комфорт 1007.8 958.4
СЗ 4 15 км 3/0
[Cs]
+24.4 +12.2 46 +26 +28 жарко 1008.0 958.5
С 2 15 км 3/0
[Ac trans Cs]
+28.0 +13.7 41 +30 +35 жарко 1007.4 958.1 +21.0 +28.7
С 2 15 км 3/0
[Ac trans Cs]
+30.9 +13.5 35 +32 +42 жарко 1006.9 957.7
ЮВ 3 15 км 1/1 1500 м
[Cb calv]
+34.1 +13.5 29 +35 +51 опасность
солнечного
удара
1005.6 956.4
ЮВ 3 15 км 3/1 1500 м
[Cb calv Ci ing]
+35.0 +11.9 25 +35 +52 опасность
солнечного
удара
1004.5 955.4
нст 2 15 км 4/1 1500 м
[Cb calv Ci ing]
+36.4 +11.2 22 +36 +54 опасность
солнечного
удара
1003.8 954.8
нст 3 15 км 6/1 1500 м
[Cb calv Cs]
+36.7 +11.5 22 +36 +50 очень
жарко
1002.5 953.6
нст 2 15 км 8/1 1500 м
[Cb cap Cs]
+36.7 +12.0 23 +36 +47 очень
жарко
1001.7 952.8
СВ 3 15 км 8/1 1500 м
[Cb cap Cs]
+36.0 +12.8 25 +36 +43 очень
жарко
1001.0 952.1
ЮЗ 4 15 км 9/1 1500 м
[Cb cap Cs]
+33.4 +17.1 38 +37 +39 очень
душно
1000.8 951.6
Ю 3 15 км 9/1 1500 м
[Cb cap Cs]
+32.1 +16.6 39 +35 +36 очень
душно
1000.7 951.4
З 2 15 км 9/1 1500 м
[Cb cap Cs]
+28.9 +17.0 49 +33 +33 очень
душно
1001.9 952.5
штиль 0 15 км 9/1 1500 м
[Cb cap Cs]
+27.7 +17.2 53 +32 +32 очень
душно
1002.3 953.0 +27.6 +37.9
С 3 15 км 8/1 1500 м
[Cb cap Cs]
+28.2 +16.3 48 +31 +31 душно 1002.7 953.7
С 4 10 км 8/0
[Ac As Cs]
+6.7 +16.5 100 +3 +3 1003.5 954.6
С 5 10 км 9/0
[Ac As Cs]
+27.1 +16.6 53 +31 +31 душно 1003.2 954.4
С 3 10 км 6/0
[Ac As Cs]
+26.9 +16.6 53 +30 +30 душно 1002.4 953.7
В 3 10 км 6/0
[Ac As Cs]
+25.9 +17.7 61 +30 +30 душно 1002.1 953.4
С 2 10 км 6/0
[Ac As Cs]
+26.3 +15.3 51 +29 +29 жарко 1001.6 953.0
З 3 10 км 6/0
[Ac As Cs]
+24.7 +15.9 58 +28 +28 душно 1001.4 952.6
С 3 10 км 5/0
[Cs]
+24.3 +16.6 62 +28 +28 душно 1001.2 952.4
С 3 10 км 6/0
[Cs]
+25.9 +15.7 53 1002.0 953.0
СВ 2 10 км 6/0
[Cs]
+22.9 +16.7 68 +28 +28 душно 1002.8 953.4
СЗ 2 10 км 4/0
[Cc]
+24.1 +17.7 67 +28 +30 душно 1003.8 954.2
З 4 10 км 1/0
[Cs]
+27.7 +16.3 50 +31 +35 душно 1003.8 954.5 +22.5 +28.9
З 4 10 км 4/0
[Cc]
+29.1 +15.7 44 +32 +39 душно 1003.7 954.6
З 4 10 км 4/0
[Cs]
+31.9 +14.7 35 +34 +43 душно 1002.9 953.8
ЮЗ 3 10 км 6/1 1500 м
[Cu hum Cs]
+33.3 +15.4 34 +35 +48 душно 1002.2 953.4
Ю 4 10 км 6/3 2000 м
[Cb cap Ac trans]
+33.7 +15.1 33 +36 +44 очень
душно
1001.6 952.8
Ю 3 10 км 6/4 1500 м
[Cb cap Ac As]
+35.3 +14.4 29 +37 +46 очень
душно
1000.3 951.7
нст 1 10 км 8/4 1200 м
[Cb cap Ac As Cs]
+34.9 +14.7 30 +36 +45 душно 999.6 951.0
ЮЗ 6 10 км 6/4 1200 м
[Cb cap Ac As Cs]
+35.7 +15.9 31 +38 +41 очень
душно
998.6 950.0
ЮЗ 4 10 км гроза без осадков 6/3 1200 м
[Cb cap Ac As Cs]
+34.9 +14.7 30 +36 +40 душно 998.2 949.4
В 5 10 км в посл. час гроза 6/1 1500 м
[Cb cap Ac trans Cs]
+33.3 +15.8 35 +36 +37 очень
душно
997.6 948.8
ЮВ 4 10 км {гроза} 6/1 1500 м
[Cb cap Ac trans Cs]
+33.9 +15.0 32 +36 +36 душно 998.8 949.8
В 6 10 км 6/0
[Ac cast Cs]
+27.9 +16.1 49 +31 +31 душно 1000.9 951.4
В 5 10 км зарница {гроза} 6/1 1500 м
[Cb cap Ac cast Cs]
+26.6 +16.9 55 +30 +30 душно 1001.4 952.2 +26.4 +36.0
СВ 2 10 км зарница 5/1 1500 м
[Cb cap Ac cast]
+25.9 +16.6 56 +29 +29 душно 1003.0 953.7
штиль 0 10 км зарница 5/1 1500 м
[Cb cap Ac cast]
+24.9 +16.9 61 +29 +29 душно 1004.0 954.8
ЮЗ 2 10 км зарница 4/1 1500 м
[Cb cap Ac cast]
+22.8 +17.5 72 +28 +28 душно 1003.4 954.2
ЮЗ 2 10 км 4/0
[Cs]
+21.9 +17.3 75 +26 +26 душно 1001.9 952.6
штиль 0 10 км ясно +21.9 +17.0 74 +26 +26 душно 1000.6 951.6
СЗ 3 10 км ясно +20.9 +16.9 78 +25 +25 комфорт 999.8 950.8
С 4 10 км ясно +20.3 +17.3 83 +24 +24 комфорт 999.2 950.2
С 3 10 км ясно +19.9 +17.0 83 +23 +23 комфорт 998.6 949.4
С 6 12 км ясно +22.5 +16.3 68 +27 +27 душно 998.2 949.2
С 5 12 км 3/0
[Cs]
+23.5 +14.9 58 +26 +26 жарко 1000.3 951.4
ЮЗ 2 15 км 3/0
[Cs]
+23.8 +16.9 65 +27 +29 жарко 1002.4 952.9
штиль 0 15 км 3/0
[Cs]
+25.7 +13.6 47 +28 +35 жарко 1002.9 953.4 +19.5 +26.6
ЮВ 2 15 км 3/0
[Cs]
+28.2 +17.1 51 +32 +43 душно 1003.4 954.0
Ю 3 15 км 3/1 1500 м
[Cb cap Cs]
+29.7 +17.3 47 +34 +45 очень
душно
1003.5 954.2
ЮЗ 5 15 км 3/1 1500 м
[Cb cap Cs]
+30.7 +18.2 47 +35 +45 очень
душно
1003.5 954.1
ЮЗ 5 15 км 5/5 1200 м
[Cb cap Cs]
+30.4 +18.9 50 +36 +41 очень
душно
1003.8 954.2
Ю 6 15 км 9/5 1200 м
[Cb cap Cs]
+29.5 +15.9 44 +33 +36 душно 1003.9 954.2
Ю 9 8000 м пыльный позёмок 10/10 1200 м
[Cb cap]
+29.0 +15.4 44 +32 +32 душно 1004.2 954.5
ЮЗ 8 7000 м гроза, ливневой дождь 10/10 1350 м
[Cb cap]
+23.1 +18.3 74 +29 +29 очень
душно
1005.3 955.0
ЮЗ 6 9000 м в посл. час гроза туман 10/1 1500 м
[Cb cap Ac As]
+24.8 +19.8 74 +30 +31 душно 1005.2 955.0
ЮЗ 4 10 км {гроза} 10/1 1500 м
[Cb cap Ac As]
+24.3 +17.4 65 +28 +29 душно 1004.3 954.2
ЮЗ 4 10 км 10/1 1500 м
[Cb cap Ac As]
+23.4 +18.1 72 +29 +29 душно 1004.7 954.6
З 3 10 км 8/5 1500 м
[Sc Ac As]
+22.7 +18.2 76 +28 +28 душно 1005.7 955.6
штиль 0 10 км {гроза} 9/5 1500 м
[Sc Ac As]
+22.8 +17.8 73 +28 +28 душно 1005.9 956.0 +22.7 +31.2 0.4
З 2 10 км 10/5 1500 м
[Sc Ac As]
+21.9 +17.0 74 +26 +26 душно 1007.0 957.0
З 2 8000 м зарница 10/6 1500 м
[Cb cap Ac As]
+22.5 +18.0 76 +28 +28 душно 1007.5 957.8
С 2 8000 м зарница 10/6 1500 м
[Cb cap Ac As]
+21.0 +18.4 85 +26 +26 душно 1007.7 957.8
Ю 2 9000 м зарница 10/6 960 м
[Cb cap Ac As]
+20.7 +17.9 84 +25 +25 комфорт 1008.0 958.2
З 2 9000 м зарница 10/6 700 м
[Cb cap Ac As]
+20.4 +17.7 84 +24 +24 комфорт 1007.8 957.8
З 2 9000 м зарница 10/6 1500 м
[Cb cap Ac As]
+20.1 +17.7 86 +24 +24 комфорт 1007.6 957.6
ЮВ 2 9000 м зарница 10/6 1110 м
[Cb cap Ac As]
+20.0 +17.1 83 +23 +23 комфорт 1008.4 957.8
штиль 0 10 км 9/9 1000 м
[Sc]
+19.5 +17.8 90 +22 +22 комфорт 1008.8 958.4
С 1 10 км 10/5 1350 м
[Sc Ac As]
+19.4 +17.7 90 +23 +23 комфорт 1009.4 958.9
ЮЗ 2 10 км 10/6 360 м
[Frnb Ac As]
+19.9 +17.7 87 +23 +23 комфорт 1010.7 960.1
ЮЗ 5 2500 м дождь туман 10/6 120 м
[Frnb As op]
+17.7 +17.2 97 +17 +17 1013.6 962.6
З 3 8000 м слаб. дождь туман 9/4 180 м
[Frnb Ac As]
+18.1 +17.5 96 +19 +20 1014.0 963.0 +17.0 +22.8 3
Ю 4 15 км в посл. час дождь 9/5 450 м
[Frnb As op]
+19.5 +16.4 82 +22 +23 комфорт 1014.7 963.7
ЮЗ 2 15 км {дождь} 8/6 600 м
[Cu Sc Ac As]
+20.2 +16.0 77 +24 +28 комфорт 1014.8 963.8
Ю 6 8000 м слаб. дождь 10/10 450 м
[Cu Sc]
+20.1 +16.1 78 +23 +23 комфорт 1015.2 964.2
Ю 7 15 км в посл. час дождь 9/6 450 м
[Cu hum Ac As]
+20.4 +16.7 79 +23 +24 комфорт 1015.1 964.1
ЮЗ 6 15 км {дождь} 6/6 750 м
[Cu Sc Ac trans]
+21.3 +17.0 76 +25 +28 комфорт 1014.4 963.4
ЮЗ 6 15 км {дождь} 5/5 600 м
[Cu hum Ac trans]
+23.3 +17.0 68 +28 +33 душно 1013.2 962.5 0.0
ЮЗ 6 15 км 4/3 750 м
[Cu hum Cs]
+24.1 +16.0 61 +27 +32 жарко 1012.0 961.4
ЮЗ 4 15 км 4/1 1050 м
[Cu hum Cs]
+24.3 +15.1 56 +27 +32 жарко 1011.2 960.6
З 4 15 км 6/1 1050 м
[Cu hum Cs]
+22.9 +15.3 62 +27 +29 душно 1011.1 960.4
ЮЗ 4 15 км 6/0
[Cs]
+22.3 +15.3 65 +26 +27 жарко 1011.0 960.2
З 2 15 км 4/1 750 м
[Cu hum Cs]
+20.5 +14.4 68 +24 +24 комфорт 1012.2 961.0
СЗ 2 15 км 4/0
[Cs]
+20.8 +13.4 63 +24 +24 комфорт 1013.4 962.2 +18.1 +25.5
С 4 12 км 4/0
[Cs]
+19.1 +15.0 77 +21 +21 комфорт 1014.7 963.4
С 4 12 км 5/0
[Ac trans Cs]
+18.9 +14.7 77 +20 +20 1015.5 964.2
С 4 12 км 3/0
[Ac trans Cs]
+18.0 +14.3 79 +18 +18 1015.8 964.5
С 4 12 км 1/0
[Ac trans]
+17.7 +13.8 78 +18 +18 1015.6 964.2
С 5 12 км 1/0
[Ac trans]
+17.5 +13.2 76 +17 +17 1015.0 963.8
С 5 15 км 1/0
[Ac trans]
+17.3 +13.0 76 +17 +17 1014.5 963.4
С 5 15 км 3/0
[Ac trans]
+17.3 +13.0 76 +17 +17 1014.3 963.4
С 5 15 км 4/4 2000 м
[Sc]
+17.3 +13.0 76 +17 +17 1014.8 963.8
С 4 15 км 1/1 2000 м
[Sc]
+16.9 +12.9 77 +16 +16 1015.1 964.0
С 5 15 км 1/1 2000 м
[Sc]
+17.5 +12.8 74 +17 +17 1015.3 964.2
С 4 15 км 1/0
[Cs]
+20.3 +13.0 63 +22 +24 комфорт 1015.4 964.5
С 3 15 км 1/0
[Cs]
+22.5 +13.7 57 +26 +31 жарко 1015.5 964.6 +16.5 +22.5 0.0
нст 1 15 км 1/0
[Cs]
+25.1 +13.5 49 +27 +40 жарко 1015.3 964.5
нст 2 15 км 1/1 1350 м
[Cu hum]
+26.2 +13.1 44 +28 +44 жарко 1014.9 964.2
нст 2 15 км 1/1 1350 м
[Cu hum]
+27.3 +13.1 42 +29 +29 жарко 1013.9 963.3
нст 2 15 км 1/1 1350 м
[Cu hum]
+28.1 +12.9 39 +30 +51 опасность
солнечного
удара
1012.8 962.2
нст 3 15 км 1/1 1350 м
[Cu hum]
+28.9 +12.1 35 +30 +47 жарко 1011.9 961.4
Ю 3 15 км 3/3 1350 м
[Cu hum]
+30.4 +11.3 31 +31 +42 жарко 1010.5 960.2
В 4 15 км 3/3 1350 м
[Cu hum]
+30.5 +8.7 26 +30 +37 жарко 1009.4 959.2
СВ 3 15 км 1/1 1350 м
[Cu hum]
+30.5 +8.7 26 +30 +37 жарко 1008.5 958.4
СВ 3 15 км 1/1 1350 м
[Cu hum]
+30.9 +8.0 24 +30 +34 жарко 1007.9 957.8
В 3 15 км 1/0
[Ac cuf]
+30.1 +9.1 27 +30 +31 жарко 1007.8 957.7
В 1 15 км 1/0
[Ac trans]
+28.7 +9.9 31 +29 +29 жарко 1008.2 958.2
В 2 12 км ясно +27.3 +10.2 34 +28 +28 жарко 1008.7 958.6 +22.5 +31.9
СЗ 3 12 км ясно +22.9 +12.6 52 +26 +26 жарко 1009.6 959.4
С 3 10 км ясно +21.5 +12.4 56 +24 +24 комфорт 1010.2 960.0
С 3 10 км ясно +20.1 +11.5 58 +22 +22 комфорт 1010.4 960.2
С 3 10 км ясно +19.3 +11.4 60 +21 +21 комфорт 1010.3 960.1
С 3 10 км ясно +18.7 +11.1 61 +20 +20 1010.1 959.8
С 3 10 км ясно +18.1 +10.7 62 +18 +18 1009.5 959.4
С 4 10 км ясно +18.5 +10.4 59 +19 +19 1009.4 959.3
С 3 10 км ясно +17.3 +10.6 65 +17 +17 1009.7 959.4
С 3 15 км ясно +17.5 +10.4 63 +17 +17 1009.8 959.7
С 4 15 км ясно +17.5 +10.4 63 +17 +18 1010.4 960.2
С 5 15 км ясно +19.9 +11.7 59 +21 +23 комфорт 1011.1 960.9
С 3 15 км ясно +23.6 +12.4 49 +25 +31 комфорт 1011.1 961.0 +16.4 +27.3
С 3 15 км ясно +27.9 +10.6 34 +28 +38 жарко 1010.5 960.5
С 4 15 км ясно +29.9 +8.5 26 +29 +41 жарко 1009.6 959.7
нст 2 15 км ясно +31.3 +8.5 24 +30 +52 опасность
солнечного
удара
1008.9 959.0
нст 3 15 км ясно +32.4 +9.0 24 +31 +51 опасность
солнечного
удара
1008.0 958.2
нст 2 15 км 1/1 2000 м
[Cu med, cong]
+33.5 +10.4 24 +33 +52 опасность
солнечного
удара
1007.1 957.4
нст 2 15 км 1/1 2000 м
[Cb cap]
+34.5 +10.3 23 +34 +52 опасность
солнечного
удара
1005.6 956.0
нст 3 15 км 3/1 2000 м
[Cb cap Ci ing]
+34.5 +8.3 20 +33 +44 жарко 1004.6 955.0
нст 3 15 км 3/0
[Ci fib]
+34.7 +8.4 20 +33 +40 жарко 1003.6 954.1
Ю 3 15 км 3/1 2000 м
[Cu med, cong Ci fib]
+34.6 +9.1 21 +33 +37 жарко 1003.1 953.6
ЮЗ 5 15 км 3/0
[Ci fib]
+32.7 +15.0 34 +34 +35 очень
жарко
1003.5 953.8
З 3 15 км 5/0
[Cs]
+28.8 +15.9 46 +32 +32 душно 1004.4 954.6
ЮЗ 2 10 км 4/0
[Cs]
+26.9 +16.4 53 +30 +30 душно 1005.3 955.6 +23.6 +35.6
СЗ 2 10 км 4/0
[Cs]
+26.7 +16.1 52 +30 +30 душно 1005.6 956.2
С 3 10 км 4/0
[Cs]
+25.4 +15.5 54 +28 +28 жарко 1006.5 957.0
СВ 2 10 км ясно +23.1 +14.0 57 +27 +27 душно 1006.8 957.3
С 3 10 км ясно +22.5 +13.9 58 +26 +26 жарко 1006.7 957.2
Местоположение метеостанции Сан-Мигель-де-Тукуман (Аргентина): широта -26.85 долгота -65.09 высота над уровнем моря 450 м.
В архиве по умолчанию представлена погода в Сан-Мигель-де-Тукумане за последнюю неделю. Архивные данные за месяц целиком и за предыдущие месяцы, начиная с января 2011 года, Вы можете получить, выбрав интересующий диапазон дат из раскрывающегося списка и нажав кнопку "Найти!".
*Определитесь, кто Вы:
Внимание! Время в таблицах - всемирное. Для получения местного времени необходимо прибавить поправку, которая равна -3 ч.
Смотрите также архив погоды в соседних городах и на ближайших метеорологических станциях:
Партнеры нашего сайта:      
Пояснения к столбцам:
  • Ветер - указаны скорость ветра в м/с - средняя за 10 мин, порывы в срок и между сроками (в фигурных скобках) и направление, откуда дует ветер: С - северный,
  • СВ - северо-восточный, В - восточный, ЮВ - юго-восточный, Ю - южный, ЮЗ - юго-западный, З - западный, СЗ - северо-западный.
  • Видимость - горизонтальная дальность видимости в метрах или километрах. При видимости от 1 до 10 км при отсутствии осадков обычно наблюдается дымка, при ухудшении видимости до 1 км и менее - туман. В сухую погоду видимость может ухудшаться дымом, пылью или мглою.
  • Явления - указаны атмосферные явления, наблюдавшиеся в срок или в последний час перед сроком; фигурными скобками обозначены явления, наблюдавшиеся между сроками (за 1-3 часа до срока); квадратными скобками обозначены град или гололедные отложения с указанием их диаметра в мм.
  • Облачность - указаны через наклонную черту общая и нижняя облачность в баллах и высота нижней границы облаков в метрах; квадратными скобками обозначены формы облаков: Ci - перистые, Cs - перисто-слоистые, Cc - перисто-кучевые, Ac - высококучевые, As - высокослоистые, Sc - слоисто-кучевые, Ns - слоисто-дождевые, Cu - кучевые, Cb - кучево-дождевые. Подробнее классификацию облаков см. в Атласе облаков (PDF).
  • T - Температура воздуха - температура, измеренная на высоте 2 м над землей.
  • Td - Температура точки росы - температура, при понижении до которой содержащийся в воздухе водяной пар достигнет насыщения.
  • f - Относительная влажность воздуха - влажноcть воздуха, измеренная на высоте 2 м над землей.
  • Te - Эффективная температура - температура, которую ощущает одетый по сезону человек в тени. Характеристика душности погоды. При расчете учитывается влияние влажности воздуха и скорости ветра на теплоощущения человека.
  • Tes - Эффективная температура на солнце - температура, которую ощущает человек, с поправкой на солнечный нагрев. Характеристика знойности погоды. Зависит от высоты солнца над горизонтом, облачности и скорости ветра. Ночью, в пасмурную погоду, а также при ветре 12 м/с и более поправка равна нулю.
  • P - Атмосферное давление - приведенное к уровню моря атмосферное давление.
  • Po - Атмосферное давление - измеренное на уровне метеостанции атмосферное давление.
  • Tmin - Минимальная температура - минимум температуры воздуха на высоте 2 м над землей.
  • Tmax - Максимальная температура - максимум температуры воздуха на высоте 2 м над землей.
  • R - Количество осадков - Количество выпавших осадков за период времени, мм. При наведении курсора мыши на число - период времени, за который выпало указанное количество осадков.
  • R24 - Количество осадков - Количество выпавших осадков за 24 часа, мм.
  • S - Снежный покров - Высота снежного покрова, см. При наведении курсора мыши на число - состояние снежного покрова и степень покрытия местности в баллах.